Online Auction of Automotive Machine Shop Equipment for Sale in Penngrove, CA

Lot #0103: Stewart Warner Balancer with Remington 5 Speed Heavy Duty Drill Press

Bidding is closed.
High Bid:$3,050.00
NA
Bidding Ended: Thu, Mar 7  10:09:45 am PT
High Bidder: mooseman36
Bid Increment: $50.00
Starting Bid: $5.00
Item Location: Penngrove, CA 94951
Item has been viewed 1,190 times.

Stewart Warner Balancer With Remington 5 Speed Heavy Duty Drill Press

  • Balancer:
  • Model:2000
  • Serial:B01238
  • Single Phase
  • Drill Press:
  • Model: G-14-5
  • Serial: M0006
  • 1 H.P.
  • 1725 RPM
  • Stewart-Warner Control Unit
  • Shop Footprint: 65” x 61” x 64”
Bid Date Bid Amount Bidder
Mar 7, 2019 - 10:07:45 AM $3,050.00 imooseman36
Mar 7, 2019 - 10:06:22 AM $3,000.00 ispeedtrap
Mar 7, 2019 - 10:06:23 AM $3,000.00 imooseman36
Mar 7, 2019 - 10:05:52 AM $2,800.00 ispeedtrap
Mar 7, 2019 - 10:05:52 AM $2,750.00 imooseman36
Mar 7, 2019 - 10:04:49 AM $2,550.00 ispeedtrap
Mar 7, 2019 - 10:04:29 AM $2,500.00 imooseman36
Mar 7, 2019 - 10:04:30 AM $2,500.00 ispeedtrap
Mar 7, 2019 - 10:04:13 AM $2,050.00 imooseman36
Mar 7, 2019 - 10:04:13 AM $2,000.00 ispeedtrap
Mar 7, 2019 - 10:03:03 AM $1,850.00 ispeedtrap
Mar 7, 2019 - 10:03:03 AM $1,800.00 itom131
Mar 7, 2019 - 10:02:37 AM $1,701.00 ispeedtrap
Mar 7, 2019 - 10:02:37 AM $1,651.00 itom131
Mar 7, 2019 - 10:01:18 AM $1,551.00 ispeedtrap
Mar 7, 2019 - 10:00:50 AM $1,501.00 imooseman36
Mar 7, 2019 - 10:00:50 AM $1,500.00 ispeedtrap
Mar 7, 2019 - 10:00:34 AM $1,250.00 ispeedtrap
Mar 7, 2019 - 10:00:34 AM $1,200.00 imooseman36
Mar 5, 2019 - 3:36:25 PM $1,001.00 ispeedtrap
Mar 5, 2019 - 3:36:25 PM $1,000.00 ifowlerranch
Mar 5, 2019 - 3:36:03 PM $765.00 ifowlerranch
Mar 5, 2019 - 3:36:03 PM $755.00 ispeedtrap
Mar 5, 2019 - 3:35:43 PM $530.00 ifowlerranch
Mar 5, 2019 - 3:35:43 PM $520.00 ispeedtrap
Mar 5, 2019 - 1:03:48 PM $510.00 ifowlerranch
Mar 5, 2019 - 1:03:48 PM $500.00 iwskmachine
Mar 5, 2019 - 1:03:20 PM $310.00 ifowlerranch
Mar 5, 2019 - 1:03:20 PM $300.00 iwskmachine
Mar 5, 2019 - 10:19:00 AM $260.00 ifowlerranch
Mar 5, 2019 - 10:19:00 AM $250.00 imooseman36
Mar 5, 2019 - 10:18:44 AM $105.00 ifowlerranch
Mar 5, 2019 - 10:18:44 AM $100.00 imooseman36
Mar 5, 2019 - 10:18:33 AM $25.00 ifowlerranch
Mar 5, 2019 - 10:18:33 AM $20.00 imooseman36
Mar 5, 2019 - 10:10:02 AM $5.00 ifowlerranch
Click on any picture to see a larger image.